sat.trackr.live / text

‹ back to catalog

QIANFAN-84

NORAD 63170 · 2025-046M

PAYLOAD ACTIVE UNKNOWN

§ Identity

Operator
Country
PRC
Launch date
2025-03-11
Launch site
WSC
Launch vehicle
Mass (kg)
RCS (m²)

External: N2YO · Heavens-Above · Gunter

§ Orbital elements

Epoch: 2026-05-25T02:02:22.164864Z

Period
106.59 min
Inclination
88.9691°
Eccentricity
0.0016106
Mean motion
13.51030618 rev/d
Perigee alt
1,056.5 km
Apogee alt
1,080.5 km
Semi-major
7,446.6 km
B*
1.9621e-4
RAAN
303.1171°
Arg perigee
20.4110°
Mean anomaly
339.7681°
Rev number
6,945

§ Raw data

QIANFAN-841 63170U 25046M   26145.08497876  .00000139  00000+0  19621-3 0  99952 63170  88.9691 303.1171 0016106  20.4110 339.7681 13.51030618 69457

JSON: /api/v1/satellites/63170 · /tle

For live sub-satellite position, see the globe view (requires WebGL).

§ Visibility from observer

Set your observer location to see the next 7 days of passes ≥ 10°. The values pass through the URL so the page stays shareable.

No JS? Fill the form by hand. The geolocation button needs JavaScript.